Vorticity
8 7 7 5 3 7 10 8 9 9 7 9 11 10 10 11 9 8 8 8 8 7 6 7 9 6 2 4 4 5 8 11 10 6 4 4 5 5 5 4 3 2 5 9 7 5 5 8 10 8 10 10 10 13 13 17 14 4 7 12 14 18 10 4 10 7 1 0 5 8 4 4 5 2 2 1 2 4 6 8 9 10 10 13 12 5
6 8 6 2 4 7 10 9 8 9 9 9 12 12 12 14 11 9 9 8 8 9 7 6 6 3 2 5 5 6 8 9 8 6 4 4 4 3 3 3 4 4 6 10 8 6 8 11 11 8 8 9 8 8 5 7 9 3 5 11 15 16 9 9 16 10 -1 -5 2 8 7 6 5 3 4 2 4 8 8 9 10 8 8 12 12 4
7 9 6 1 4 7 8 9 7 7 8 8 12 14 13 14 13 11 10 9 8 7 7 6 5 3 3 6 8 8 8 8 7 4 3 2 3 3 3 4 4 4 6 9 8 8 10 9 8 8 8 9 9 7 6 11 13 5 5 9 6 11 16 15 14 12 6 -2 3 9 7 6 5 5 5 1 5 9 5 7 8 7 8 9 10 7
8 8 7 4 4 6 8 10 9 8 7 6 10 14 13 13 14 13 10 10 8 5 5 6 6 7 6 6 9 10 7 7 5 2 2 2 4 4 3 4 4 5 7 8 7 7 9 8 8 10 9 10 10 7 10 16 15 6 6 10 6 3 7 12 14 13 10 2 2 7 7 8 8 7 8 6 9 6 -1 5 7 8 10 7 6 3
8 6 9 10 7 6 8 9 9 10 9 8 11 14 15 14 14 11 9 9 7 5 4 6 8 10 9 9 11 9 6 5 4 3 4 5 5 4 3 5 5 6 8 7 7 8 9 10 11 11 9 8 6 1 4 10 11 9 8 12 11 -4 -4 24 32 8 1 10 17 19 11 7 10 10 11 10 10 7 3 8 13 14 12 5 4 4
7 3 7 11 9 10 11 9 8 10 10 9 11 16 15 12 13 11 9 9 6 7 8 10 11 10 10 12 10 7 6 5 4 3 4 4 4 3 4 5 7 9 10 8 7 6 7 8 8 8 7 6 5 2 3 9 12 12 8 7 8 1 5 33 36 8 -3 1 14 28 19 7 8 10 15 12 7 9 7 7 10 11 10 8 7 8
7 4 6 7 8 11 14 11 6 7 9 9 11 16 14 11 13 13 11 10 6 10 14 14 13 10 11 12 7 5 5 3 3 3 3 3 3 3 4 6 8 11 12 11 9 8 9 8 6 6 5 4 5 5 5 9 13 13 9 2 -3 -1 0 7 16 25 20 -7 -17 4 14 13 12 7 11 13 11 10 7 5 7 9 11 12 13 13
7 5 6 8 8 8 10 12 9 7 9 10 13 15 13 13 13 11 10 9 6 13 16 11 11 11 10 9 5 3 3 1 2 2 2 2 2 4 5 8 8 8 9 9 8 7 6 4 3 1 1 3 4 5 5 5 6 6 6 2 -4 -0 3 3 10 26 30 9 -8 -2 3 6 13 12 11 13 13 11 8 7 8 12 12 11 19 22
9 8 8 11 12 8 10 16 15 11 9 11 16 15 13 13 9 6 10 9 6 14 15 6 7 9 5 5 5 2 1 2 2 3 2 1 2 2 3 7 9 6 5 5 5 6 5 3 3 1 2 4 4 5 6 4 4 5 5 3 2 6 11 14 15 14 14 14 12 17 15 4 2 9 12 12 15 14 8 6 7 12 11 14 27 26
11 10 11 11 13 12 15 19 16 13 11 12 16 16 13 10 5 4 10 10 5 11 13 4 5 6 2 2 3 2 3 2 2 2 1 1 2 1 2 8 11 9 7 7 6 7 7 5 4 3 3 5 6 8 9 9 7 7 9 8 7 8 10 12 16 15 10 5 2 8 18 14 7 10 7 5 13 15 8 7 12 13 9 13 23 17
12 11 11 10 10 9 11 15 13 10 10 13 14 16 14 9 5 4 8 9 6 8 11 6 3 2 -0 -1 -1 1 3 2 2 2 1 3 3 1 2 7 9 7 6 6 6 7 7 8 8 8 8 8 9 9 10 11 9 7 9 11 10 9 10 11 12 14 14 9 1 -2 2 5 7 14 12 6 10 12 8 9 14 15 9 8 11 8
9 9 10 12 11 8 7 10 11 8 7 12 14 14 15 10 5 4 5 6 5 5 8 7 4 1 -2 -2 -0 2 0 -0 1 2 3 4 2 -0 0 5 8 7 5 3 5 7 9 12 13 14 13 12 11 10 9 9 9 9 10 12 14 11 11 12 12 13 14 11 7 5 4 -1 -4 0 7 11 13 12 10 9 13 18 12 6 9 8
7 10 10 11 11 10 8 9 11 8 6 11 14 12 11 10 5 2 0 0 2 4 6 7 6 2 -1 -1 1 1 -0 -1 1 1 2 3 2 0 -1 4 9 9 6 4 5 9 10 11 11 12 13 12 11 9 8 7 8 10 11 13 15 14 11 11 13 14 11 9 8 7 9 8 3 -1 -1 5 12 15 13 6 7 15 10 4 10 11
6 9 8 8 9 7 9 10 11 11 8 9 14 11 8 7 5 3 1 2 5 6 7 8 7 4 2 1 1 1 2 2 2 2 2 3 3 0 -0 6 11 9 6 4 5 7 8 8 8 9 10 10 9 8 7 7 7 8 9 9 11 12 11 9 11 14 11 10 11 9 9 12 12 10 9 8 8 13 15 7 5 11 7 5 11 11
6 7 8 9 11 8 10 13 14 17 18 15 16 14 8 7 8 9 9 9 8 9 9 10 8 5 4 4 4 4 2 1 0 0 2 4 3 -0 2 7 8 6 6 6 8 7 7 7 8 9 10 9 8 7 6 4 4 5 5 7 10 10 10 8 7 11 12 11 9 8 9 12 12 11 14 15 10 12 17 12 9 13 9 4 6 9
11 12 14 13 14 12 11 13 14 16 15 12 12 11 8 8 10 12 12 11 9 8 8 6 4 5 4 4 7 6 3 1 1 2 4 5 1 -2 3 7 6 6 7 8 9 7 6 7 9 10 10 10 8 6 6 5 5 5 6 9 11 10 10 10 7 7 12 14 10 6 5 11 16 10 6 10 11 17 21 8 -1 7 13 8 3 8
13 13 14 13 13 13 10 11 14 16 13 8 7 10 11 10 11 10 8 9 7 3 3 4 3 6 6 5 6 5 2 1 2 3 4 3 -1 -1 5 8 8 9 11 11 8 6 8 9 10 11 10 9 8 7 8 8 8 9 9 8 9 9 7 7 10 10 11 15 13 8 6 11 19 14 5 4 9 20 25 11 -2 5 17 15 6 4
13 12 12 13 12 12 10 8 11 14 14 11 10 14 15 11 9 8 5 4 4 1 0 3 2 3 4 3 3 3 3 2 3 4 4 2 -0 2 4 3 5 12 14 13 10 8 9 10 10 10 8 8 7 7 7 7 7 8 9 9 9 11 11 10 14 14 14 18 17 12 12 16 20 17 9 4 5 16 23 14 6 9 15 17 9 1
12 12 13 14 12 12 12 11 10 11 12 14 17 19 17 10 8 10 6 3 4 3 1 1 2 2 1 -0 -1 1 2 3 4 4 4 1 -0 2 3 3 7 8 6 7 9 9 9 10 9 7 6 7 6 6 5 5 7 7 9 13 12 14 18 19 21 18 15 18 19 17 19 23 21 14 9 6 3 11 20 12 1 1 6 13 13 5
9 10 13 14 11 10 10 10 11 12 12 13 16 18 16 12 10 10 8 4 5 6 4 1 0 -0 -1 -0 2 3 3 2 3 3 2 0 1 3 6 10 10 4 0 5 9 10 10 8 7 6 7 8 7 6 7 10 15 15 14 14 15 18 21 19 19 18 16 17 19 17 18 23 23 17 12 10 5 9 20 15 3 -1 2 10 14 11
10 10 13 14 12 9 8 9 12 14 14 12 9 9 13 14 11 9 9 8 6 7 8 6 5 5 5 6 7 7 7 6 7 6 4 4 4 5 9 12 10 6 6 8 8 9 9 8 9 11 11 9 7 8 12 15 16 13 9 9 13 16 12 7 8 10 10 11 11 9 11 17 25 25 20 16 13 13 18 17 11 6 5 8 11 12
10 9 12 15 12 7 6 8 11 11 14 15 11 8 9 11 11 9 10 13 11 10 11 12 14 14 13 12 10 9 10 11 11 10 10 10 10 10 11 10 8 8 10 10 10 10 10 10 11 11 10 8 7 7 7 6 6 6 7 10 13 12 6 4 7 7 4 4 3 4 7 10 18 27 26 18 16 19 19 16 13 9 8 8 8 10
10 9 12 13 10 7 6 6 9 9 10 14 14 12 10 11 12 11 9 12 14 14 12 11 12 11 9 9 11 13 14 15 16 16 16 15 14 14 12 9 9 12 13 14 14 12 9 9 9 8 8 8 5 2 -1 1 6 10 13 13 12 11 10 11 13 11 8 8 7 6 7 8 10 20 27 23 16 17 19 18 14 10 9 9 8 9
11 10 12 11 8 8 6 5 7 8 6 7 7 6 7 7 9 8 8 9 9 11 11 10 11 11 10 10 12 16 17 16 15 14 13 13 13 13 12 11 11 13 13 14 12 9 8 7 6 6 7 6 5 4 4 8 13 13 11 10 8 8 9 9 9 11 11 11 11 10 10 12 11 12 21 28 24 16 16 18 17 13 10 11 11 8
13 11 11 8 4 4 4 4 6 6 5 4 2 2 2 2 4 4 5 5 5 8 10 11 12 14 14 12 12 13 13 13 11 10 10 10 10 11 10 11 12 12 12 11 9 8 7 7 7 7 7 8 10 10 12 14 14 11 9 7 7 7 7 8 8 9 10 10 10 9 8 12 14 10 11 21 28 24 18 17 18 15 11 12 13 10
13 10 10 7 4 3 1 2 3 2 2 2 2 3 4 4 7 8 7 7 7 9 10 11 13 16 17 17 14 11 10 11 11 11 12 12 12 13 12 13 14 14 12 9 7 7 7 7 8 9 10 12 12 12 12 11 7 7 8 8 8 8 8 10 11 12 14 12 11 10 8 9 12 12 9 11 20 26 26 22 18 14 12 13 17 15
12 10 7 5 6 6 4 4 4 4 4 4 4 5 6 7 7 8 8 8 8 9 10 11 11 13 14 15 14 13 12 12 13 13 13 14 14 14 12 12 11 10 9 8 8 8 7 8 8 8 9 9 8 6 4 2 0 2 6 9 10 9 9 10 11 13 15 14 13 12 11 10 9 10 10 8 10 16 21 22 16 11 11 12 18 20
10 9 5 3 5 7 7 8 7 7 7 7 8 7 6 7 6 6 6 6 7 8 8 7 6 6 7 7 8 10 11 12 12 13 12 12 11 9 7 8 8 8 8 8 9 9 7 7 6 5 5 3 2 0 -1 -1 1 3 7 10 11 9 9 8 8 9 11 12 13 12 11 12 11 10 10 9 9 8 10 12 11 10 10 10 14 18
9 10 6 5 5 5 6 6 5 7 7 6 7 6 4 5 6 7 8 9 10 12 11 9 4 3 3 3 4 6 9 10 9 10 9 7 8 9 8 9 11 11 11 9 7 6 5 5 4 4 4 4 3 3 2 3 3 3 6 9 10 9 8 7 5 5 6 7 10 11 11 11 11 12 11 9 9 8 7 8 8 8 8 7 8 12
8 10 8 6 5 4 6 5 2 2 3 1 2 3 2 3 5 9 13 15 15 14 13 13 11 8 5 4 5 7 8 8 7 7 6 4 6 9 9 8 7 7 6 3 -0 -1 2 4 3 2 5 7 8 8 9 9 8 7 7 6 8 8 7 7 7 6 6 6 7 8 10 10 11 12 12 11 10 10 9 8 8 8 10 9 7 8
8 10 8 7 6 3 3 6 6 4 3 1 0 1 1 2 3 6 9 11 13 11 11 12 13 13 11 9 8 7 7 6 5 5 5 5 7 9 11 10 7 6 4 1 -0 1 5 8 7 7 8 9 9 8 7 6 5 5 5 4 5 6 6 5 5 6 7 7 7 7 7 9 10 10 12 12 10 10 10 10 10 9 10 10 9 9
9 9 8 10 11 7 2 3 5 6 5 4 3 3 3 3 4 5 4 2 3 4 5 8 10 11 12 11 8 7 5 4 4 5 6 8 8 9 12 13 12 12 10 8 8 9 12 13 11 9 7 5 3 2 1 1 3 5 6 5 5 5 4 4 3 4 5 5 7 8 6 7 8 8 10 11 11 11 10 10 11 11 11 11 10 9
15 13 10 9 11 11 8 5 3 3 4 5 7 7 8 8 7 6 2 -2 3 7 5 4 8 10 9 9 8 8 8 8 8 8 7 7 6 5 8 9 9 11 11 11 11 10 10 11 8 5 3 3 4 5 7 10 11 11 10 9 8 6 5 5 4 4 5 6 8 9 8 7 6 6 7 9 12 12 11 9 9 10 11 11 10 10
17 18 15 12 10 10 10 9 8 6 5 6 7 8 9 10 12 12 5 -1 6 16 13 6 6 6 5 5 5 6 8 9 11 9 7 6 6 7 9 7 5 5 6 8 9 7 6 6 5 4 4 6 7 8 8 8 8 8 9 9 9 9 7 6 5 5 7 9 10 12 11 9 7 6 5 6 8 11 13 12 10 9 10 10 11 12
10 12 13 14 13 12 10 10 10 8 6 5 4 5 6 7 10 13 9 2 1 6 8 5 4 3 2 2 2 3 5 6 9 10 7 7 8 9 10 9 8 6 5 6 6 6 5 5 5 6 7 6 5 4 4 3 3 6 7 7 7 8 8 6 5 6 9 9 8 10 12 11 9 8 6 5 6 7 10 12 12 12 11 10 11 11
13 11 12 12 11 11 10 10 11 9 9 9 8 7 5 3 3 4 7 9 7 5 6 7 7 7 6 6 5 4 3 3 5 5 3 3 5 7 7 7 7 10 12 13 9 5 5 6 7 9 9 7 5 5 6 6 6 7 8 9 10 10 10 9 8 9 10 8 4 6 11 12 11 10 9 8 6 6 7 9 11 13 11 10 11 11
9 9 12 13 12 13 12 11 12 10 10 11 12 12 12 10 9 8 8 10 10 9 9 10 10 11 11 10 10 10 8 7 6 3 1 1 2 3 6 8 11 13 16 18 17 14 12 10 9 8 8 8 8 8 7 5 5 6 7 8 8 8 8 8 8 8 8 5 3 6 10 12 11 9 9 8 8 7 6 6 8 10 11 10 9 10
1 -0 2 4 7 11 12 13 15 13 12 11 10 11 11 10 10 13 13 11 9 7 8 8 7 8 8 8 8 8 9 12 13 13 11 10 7 5 7 11 12 9 7 9 14 18 17 13 10 7 6 7 7 6 5 4 4 4 4 4 3 3 3 3 4 5 5 4 4 7 10 12 12 10 7 7 8 8 7 7 6 7 9 10 9 9
1 -2 -2 -0 3 7 9 11 12 12 13 11 8 7 6 5 6 13 17 16 13 12 12 12 11 11 14 16 13 11 12 16 18 18 17 14 11 8 8 8 8 6 6 8 12 14 14 12 10 9 8 8 8 7 7 8 8 7 7 6 6 6 6 6 6 6 6 5 6 7 9 11 13 12 9 6 6 8 8 9 7 7 7 9 10 10
7 6 6 8 10 11 12 12 10 10 10 11 12 13 14 13 13 14 15 14 14 13 13 13 13 13 15 17 17 16 17 19 17 16 15 14 12 11 10 9 9 8 7 7 7 8 8 6 5 6 6 7 8 8 8 7 7 6 5 4 3 3 4 5 5 6 6 6 6 6 6 7 10 13 13 9 7 7 8 9 9 9 8 6 8 12
13 13 12 13 13 13 13 13 12 12 11 10 10 12 14 15 14 14 13 14 15 14 12 13 15 14 13 14 14 14 14 14 13 13 14 13 13 12 12 12 12 10 8 7 6 6 6 5 5 5 6 7 8 8 7 6 6 5 4 3 3 3 3 4 4 4 4 4 5 6 6 5 6 9 11 12 10 8 8 7 7 9 10 8 6 9
13 14 13 13 13 13 13 13 13 13 12 11 10 10 11 11 13 15 16 18 19 18 17 17 16 15 14 13 12 11 10 9 10 11 11 11 11 12 11 11 11 11 11 11 10 9 9 9 9 8 8 9 9 9 9 9 9 10 9 9 8 7 7 6 6 6 5 5 5 5 5 6 5 6 8 9 9 9 10 9 6 6 9 10 7 8
13 13 13 13 12 12 13 13 12 12 12 12 10 10 10 10 11 12 11 11 12 13 14 14 14 12 12 11 10 10 10 10 11 10 10 11 10 10 10 11 11 12 12 12 13 13 12 13 13 13 13 13 13 14 13 13 14 14 14 14 14 14 13 13 12 12 10 10 9 6 5 6 6 5 6 6 6 5 7 9 8 6 7 8 8 10
12 12 12 12 12 11 12 12 12 11 11 11 9 8 8 8 7 6 6 5 5 6 6 7 8 8 8 8 8 9 9 9 10 10 11 12 13 13 14 15 16 16 16 16 16 16 15 15 15 15 15 14 14 15 14 14 14 14 14 14 14 15 15 15 14 14 13 13 13 12 10 9 7 6 6 7 7 4 3 6 8 8 8 8 9 10
14 15 13 12 13 13 11 10 10 9 9 9 9 8 8 9 8 8 8 8 8 9 10 9 10 11 11 11 11 12 12 13 14 15 16 16 17 17 16 15 15 14 13 13 13 13 13 12 12 11 11 11 11 11 11 11 11 12 13 13 11 11 12 12 12 13 14 14 14 13 14 13 12 10 8 8 9 8 6 5 6 9 10 9 8 9
12 13 13 13 13 13 13 12 11 11 11 10 10 10 10 10 10 10 11 12 12 12 12 12 11 11 12 12 13 13 15 16 15 15 15 13 12 12 11 12 12 12 12 12 12 12 12 12 12 12 12 12 11 12 12 11 11 11 12 12 12 11 11 11 12 13 13 14 14 13 13 13 14 14 12 10 11 13 12 10 8 10 12 10 8 8
11 11 12 12 11 11 12 13 12 11 12 12 12 12 11 11 11 11 11 11 11 11 11 11 11 11 11 12 12 12 12 12 11 11 10 10 11 11 11 11 11 11 11 11 11 11 12 12 13 13 13 13 13 13 13 13 13 12 12 13 13 13 12 12 12 13 13 13 14 13 12 10 11 12 13 12 12 13 14 14 13 13 13 11 9 8
12 12 12 11 12 11 10 10 11 11 12 12 12 11 11 11 11 12 12 12 12 13 12 12 13 14 13 13 13 12 12 12 12 11 11 11 10 9 9 9 10 11 12 12 13 14 14 14 15 15 16 17 16 16 16 16 16 16 16 16 16 16 15 14 12 13 13 12 13 14 14 12 10 9 10 10 11 11 12 13 15 17 16 13 11 9
13 14 14 13 13 13 13 13 13 13 13 13 12 12 13 12 11 11 12 14 15 16 16 16 16 16 16 17 17 17 15 14 13 12 10 10 10 10 11 13 13 14 14 14 14 14 14 14 14 14 15 16 17 18 18 18 19 19 20 20 19 19 19 18 16 15 14 13 12 12 13 14 13 12 10 9 9 9 9 10 12 14 15 15 15 13
14 14 14 13 12 13 15 14 13 13 14 14 13 11 11 11 11 11 11 11 13 15 16 17 19 19 19 18 16 13 11 9 9 9 10 11 12 12 13 13 13 13 13 13 14 14 14 15 15 15 16 16 16 17 17 17 18 19 20 21 21 22 23 23 23 22 21 19 17 14 12 12 13 13 13 13 11 10 9 9 11 12 12 14 16 17
15 14 15 15 14 13 13 13 13 11 11 13 13 12 11 10 10 10 10 11 14 15 16 16 17 16 13 10 7 7 8 9 10 10 10 10 10 10 11 11 12 13 14 15 16 17 17 18 18 19 19 18 18 18 18 18 18 18 18 19 20 20 22 22 23 24 25 25 24 21 18 16 14 13 13 14 14 14 11 10 10 11 12 11 11 13
Height
5729 5731 5735 5739 5744 5748 5750 5753 5755 5756 5759 5762 5765 5768 5770 5772 5774 5775 5778 5780 5781 5784 5786 5788 5793 5794 5794 5796 5799 5801 5803 5804 5805 5806 5807 5808 5810 5811 5812 5812 5812 5813 5813 5813 5812 5812 5813 5813 5813 5813 5813 5813 5813 5813 5812 5812 5813 5812 5812 5811 5810 5810 5811 5811 5810 5810 5812 5812 5812 5811 5810 5810 5809 5809 5809 5809 5809 5808 5808 5808 5807 5807 5807 5807 5805 5805
5725 5728 5732 5737 5741 5744 5746 5748 5750 5753 5756 5759 5762 5765 5768 5770 5772 5773 5775 5777 5779 5781 5783 5786 5790 5791 5792 5794 5797 5799 5800 5802 5803 5804 5805 5807 5808 5809 5809 5809 5810 5811 5811 5811 5811 5811 5811 5811 5811 5811 5811 5811 5810 5809 5809 5809 5810 5809 5808 5808 5809 5810 5810 5808 5806 5806 5807 5808 5809 5809 5808 5807 5806 5806 5806 5806 5806 5806 5806 5805 5804 5804 5804 5804 5802 5802
5721 5724 5729 5734 5737 5740 5742 5744 5747 5750 5753 5756 5759 5763 5765 5768 5769 5770 5772 5774 5777 5779 5781 5784 5787 5788 5790 5793 5794 5796 5797 5799 5800 5802 5804 5805 5806 5807 5807 5807 5808 5809 5809 5809 5809 5809 5809 5809 5809 5809 5809 5808 5808 5807 5807 5808 5808 5807 5806 5808 5809 5808 5807 5807 5806 5805 5805 5806 5806 5806 5806 5805 5804 5804 5804 5803 5804 5804 5803 5802 5801 5801 5802 5801 5800 5800
5718 5722 5726 5730 5734 5736 5738 5741 5744 5747 5750 5753 5756 5760 5762 5765 5767 5768 5769 5772 5774 5776 5778 5782 5784 5786 5788 5790 5792 5793 5794 5796 5798 5800 5802 5803 5804 5804 5805 5805 5806 5806 5807 5806 5806 5806 5807 5807 5806 5806 5806 5806 5806 5806 5807 5807 5806 5805 5805 5806 5807 5805 5804 5805 5805 5805 5805 5805 5804 5803 5803 5803 5802 5802 5801 5801 5801 5800 5799 5799 5799 5799 5799 5798 5797 5796
5716 5720 5724 5727 5730 5733 5736 5739 5741 5744 5747 5750 5753 5756 5759 5762 5764 5765 5767 5769 5771 5773 5776 5779 5781 5783 5785 5787 5789 5790 5792 5794 5796 5798 5800 5801 5802 5802 5802 5803 5803 5804 5804 5804 5804 5804 5804 5804 5804 5804 5803 5803 5803 5804 5805 5804 5803 5802 5802 5803 5804 5803 5802 5801 5801 5802 5803 5803 5802 5801 5801 5801 5800 5799 5799 5797 5797 5797 5796 5796 5796 5796 5795 5794 5794 5793
5712 5716 5719 5723 5727 5731 5734 5736 5738 5741 5744 5747 5750 5754 5756 5759 5761 5762 5764 5767 5769 5771 5773 5776 5778 5780 5782 5784 5786 5788 5789 5791 5793 5796 5797 5798 5799 5800 5800 5801 5801 5802 5802 5802 5801 5801 5802 5802 5801 5801 5802 5801 5801 5801 5801 5801 5801 5800 5799 5799 5801 5801 5799 5799 5799 5800 5800 5800 5800 5799 5799 5798 5797 5796 5796 5794 5793 5795 5794 5793 5793 5792 5790 5791 5790 5789
5708 5712 5715 5719 5723 5727 5730 5732 5735 5738 5740 5743 5748 5751 5753 5756 5758 5760 5762 5764 5766 5769 5772 5774 5775 5777 5779 5781 5783 5785 5787 5789 5791 5793 5795 5796 5797 5797 5798 5798 5799 5799 5799 5799 5799 5799 5799 5799 5799 5799 5799 5799 5799 5798 5798 5798 5798 5798 5796 5796 5797 5797 5796 5797 5798 5798 5797 5797 5797 5796 5796 5795 5793 5793 5793 5792 5792 5793 5792 5790 5789 5788 5787 5787 5786 5786
5704 5708 5712 5716 5719 5722 5725 5729 5732 5735 5737 5741 5745 5747 5750 5753 5756 5757 5759 5761 5764 5767 5769 5771 5773 5776 5777 5779 5781 5783 5785 5787 5789 5791 5792 5793 5794 5795 5796 5796 5796 5797 5797 5797 5797 5797 5796 5796 5796 5796 5796 5796 5796 5796 5795 5795 5796 5796 5795 5794 5794 5794 5794 5795 5796 5796 5795 5795 5794 5794 5793 5791 5790 5789 5790 5790 5790 5790 5789 5788 5787 5785 5784 5783 5783 5783
5701 5706 5710 5714 5716 5719 5723 5726 5729 5732 5735 5739 5742 5744 5747 5751 5753 5755 5757 5758 5762 5765 5767 5768 5771 5773 5775 5777 5779 5781 5783 5785 5787 5788 5789 5791 5792 5793 5794 5794 5794 5795 5794 5794 5794 5794 5794 5794 5793 5793 5793 5793 5794 5793 5792 5792 5792 5793 5793 5793 5793 5792 5792 5792 5793 5793 5792 5792 5791 5790 5789 5788 5787 5787 5788 5789 5788 5788 5787 5786 5784 5783 5782 5781 5780 5780
5700 5704 5707 5710 5713 5717 5720 5723 5726 5728 5732 5736 5739 5742 5745 5748 5750 5752 5754 5756 5759 5763 5765 5766 5768 5771 5773 5774 5776 5779 5781 5782 5784 5786 5788 5789 5790 5791 5791 5792 5792 5792 5792 5792 5792 5791 5791 5791 5791 5790 5790 5790 5790 5790 5790 5789 5789 5789 5790 5791 5791 5790 5789 5789 5790 5790 5789 5788 5788 5787 5786 5785 5785 5785 5786 5786 5786 5785 5785 5783 5782 5781 5779 5778 5778 5778
5695 5699 5702 5705 5709 5712 5715 5718 5722 5725 5728 5732 5736 5739 5743 5745 5747 5749 5752 5754 5756 5759 5762 5764 5766 5768 5770 5772 5774 5776 5778 5780 5782 5784 5786 5787 5787 5788 5789 5789 5790 5790 5790 5790 5789 5789 5789 5788 5788 5787 5787 5787 5786 5786 5786 5786 5786 5786 5786 5787 5787 5786 5785 5785 5786 5786 5785 5784 5784 5784 5784 5784 5783 5783 5782 5782 5782 5782 5781 5780 5780 5779 5777 5777 5776 5776
5690 5693 5696 5700 5705 5708 5710 5714 5718 5721 5724 5728 5732 5736 5739 5741 5744 5746 5749 5751 5753 5756 5759 5761 5763 5765 5768 5770 5772 5773 5775 5778 5780 5782 5783 5784 5785 5786 5786 5787 5787 5788 5788 5788 5787 5787 5786 5786 5785 5784 5784 5784 5784 5783 5782 5783 5783 5783 5783 5783 5782 5782 5781 5781 5782 5781 5781 5780 5780 5780 5781 5781 5780 5779 5779 5778 5778 5777 5777 5776 5777 5777 5776 5775 5775 5774
5687 5690 5693 5697 5701 5704 5707 5711 5714 5717 5721 5724 5728 5732 5735 5737 5740 5742 5745 5747 5749 5753 5756 5759 5761 5762 5764 5767 5769 5771 5774 5775 5777 5780 5781 5782 5783 5783 5784 5785 5785 5785 5785 5785 5785 5784 5783 5783 5782 5782 5781 5781 5781 5781 5780 5779 5780 5780 5780 5780 5779 5779 5778 5778 5778 5778 5777 5777 5777 5777 5776 5776 5776 5775 5775 5774 5773 5773 5772 5772 5772 5774 5774 5773 5773 5772
5684 5687 5690 5694 5697 5701 5705 5708 5711 5715 5718 5721 5725 5728 5730 5733 5735 5738 5741 5743 5746 5750 5753 5756 5757 5759 5761 5764 5767 5769 5771 5773 5774 5777 5778 5779 5780 5781 5781 5782 5782 5782 5782 5782 5781 5781 5780 5780 5779 5779 5779 5779 5779 5778 5777 5777 5777 5777 5777 5777 5777 5777 5776 5775 5775 5775 5775 5774 5774 5773 5772 5772 5772 5772 5771 5770 5769 5769 5768 5768 5769 5771 5772 5772 5771 5771
5683 5685 5688 5692 5696 5699 5703 5706 5710 5715 5718 5721 5723 5726 5728 5730 5733 5736 5738 5740 5743 5747 5750 5753 5755 5757 5759 5761 5764 5767 5769 5770 5772 5774 5775 5776 5777 5778 5779 5779 5779 5779 5779 5779 5778 5778 5777 5777 5777 5777 5776 5776 5776 5776 5775 5774 5773 5773 5774 5774 5775 5774 5774 5773 5772 5772 5771 5771 5770 5769 5768 5768 5768 5768 5767 5766 5765 5764 5764 5764 5766 5768 5769 5769 5769 5768
5681 5684 5688 5692 5695 5698 5702 5705 5709 5712 5715 5718 5721 5723 5726 5729 5733 5736 5738 5740 5743 5746 5749 5750 5752 5754 5755 5758 5762 5765 5766 5767 5769 5770 5772 5773 5774 5775 5775 5776 5776 5776 5775 5775 5775 5775 5775 5775 5775 5774 5774 5773 5773 5772 5772 5771 5770 5770 5770 5770 5771 5771 5771 5770 5769 5768 5768 5767 5766 5765 5764 5763 5764 5764 5763 5762 5761 5760 5760 5761 5763 5765 5766 5766 5766 5765
5679 5683 5687 5691 5694 5697 5700 5704 5707 5710 5713 5715 5718 5721 5724 5728 5731 5735 5737 5739 5742 5744 5747 5748 5749 5751 5753 5755 5759 5762 5763 5764 5766 5768 5769 5771 5771 5772 5773 5773 5773 5772 5772 5772 5772 5773 5773 5772 5772 5772 5772 5771 5770 5769 5769 5768 5768 5767 5766 5766 5766 5767 5767 5766 5766 5765 5764 5763 5763 5761 5760 5759 5759 5759 5759 5757 5756 5756 5756 5757 5759 5760 5762 5763 5763 5762
5679 5683 5685 5689 5692 5695 5698 5701 5704 5708 5711 5714 5717 5721 5724 5726 5728 5731 5734 5736 5739 5741 5743 5745 5747 5748 5751 5753 5756 5759 5760 5762 5764 5765 5767 5767 5768 5769 5770 5770 5770 5770 5769 5769 5770 5770 5770 5770 5770 5770 5769 5768 5768 5767 5766 5766 5765 5764 5763 5763 5762 5762 5762 5762 5762 5761 5760 5759 5758 5757 5755 5755 5755 5755 5754 5753 5752 5752 5753 5754 5755 5756 5758 5760 5761 5760
5678 5681 5684 5687 5690 5693 5696 5698 5701 5705 5709 5713 5718 5721 5723 5724 5726 5729 5730 5732 5735 5738 5740 5742 5744 5746 5748 5750 5754 5756 5758 5759 5761 5762 5763 5764 5766 5766 5766 5767 5767 5767 5767 5767 5767 5767 5767 5767 5767 5766 5766 5765 5765 5764 5763 5763 5762 5762 5761 5760 5759 5758 5758 5758 5757 5757 5756 5755 5754 5753 5751 5751 5751 5750 5749 5749 5749 5749 5750 5751 5752 5753 5755 5756 5757 5757
5676 5679 5682 5685 5688 5691 5693 5696 5700 5703 5707 5711 5715 5718 5720 5722 5724 5727 5729 5731 5734 5736 5738 5740 5741 5743 5745 5748 5751 5754 5755 5757 5758 5759 5760 5761 5763 5763 5763 5764 5764 5764 5764 5764 5764 5764 5764 5764 5764 5763 5763 5762 5762 5761 5761 5760 5759 5759 5758 5757 5756 5756 5755 5755 5754 5753 5753 5752 5751 5750 5748 5748 5747 5745 5745 5745 5745 5746 5747 5747 5747 5749 5751 5753 5753 5754
5674 5677 5680 5683 5686 5689 5692 5695 5699 5703 5706 5708 5710 5713 5716 5719 5722 5724 5727 5729 5731 5734 5736 5738 5739 5742 5744 5746 5749 5751 5753 5754 5755 5756 5757 5758 5760 5760 5760 5761 5761 5761 5761 5761 5761 5761 5761 5761 5761 5760 5760 5759 5759 5759 5758 5757 5757 5756 5755 5754 5754 5753 5753 5752 5752 5751 5750 5749 5749 5747 5746 5745 5743 5742 5741 5741 5742 5742 5743 5743 5743 5745 5747 5749 5750 5751
5672 5676 5679 5682 5684 5687 5691 5695 5699 5702 5705 5707 5710 5712 5714 5717 5720 5722 5724 5726 5728 5731 5733 5736 5738 5741 5743 5744 5746 5748 5749 5750 5752 5753 5754 5755 5756 5757 5757 5757 5757 5758 5758 5758 5758 5758 5758 5758 5757 5757 5757 5757 5756 5756 5755 5755 5754 5753 5753 5752 5751 5751 5750 5750 5749 5749 5748 5747 5746 5745 5744 5743 5741 5740 5739 5738 5739 5739 5739 5739 5739 5741 5743 5745 5746 5748
5670 5674 5677 5680 5683 5686 5690 5694 5697 5700 5703 5706 5709 5712 5713 5716 5718 5720 5722 5725 5727 5729 5731 5733 5736 5738 5739 5741 5743 5744 5745 5747 5748 5749 5751 5752 5753 5754 5754 5754 5754 5754 5755 5755 5755 5755 5755 5754 5754 5753 5754 5754 5753 5753 5753 5752 5752 5751 5750 5750 5749 5748 5748 5748 5747 5747 5746 5745 5744 5743 5742 5741 5740 5738 5737 5735 5736 5736 5735 5735 5736 5738 5739 5741 5742 5744
5669 5672 5676 5679 5682 5686 5689 5692 5695 5698 5701 5704 5707 5709 5712 5714 5716 5719 5721 5723 5725 5726 5729 5731 5732 5734 5736 5738 5739 5741 5742 5743 5745 5746 5748 5749 5750 5750 5750 5750 5751 5751 5752 5752 5752 5752 5752 5751 5751 5750 5751 5751 5751 5751 5750 5750 5749 5748 5748 5747 5746 5746 5746 5745 5745 5744 5744 5743 5742 5741 5740 5739 5738 5737 5735 5733 5732 5732 5732 5733 5734 5735 5736 5737 5739 5741
5668 5671 5674 5677 5680 5683 5686 5690 5693 5696 5698 5701 5704 5707 5709 5712 5714 5717 5719 5720 5721 5723 5725 5727 5729 5731 5733 5735 5736 5738 5739 5741 5742 5744 5745 5746 5747 5747 5747 5747 5748 5748 5749 5749 5749 5749 5749 5748 5748 5748 5748 5748 5748 5748 5748 5747 5747 5746 5745 5745 5744 5743 5743 5743 5742 5742 5741 5740 5740 5739 5738 5737 5736 5735 5733 5731 5730 5730 5730 5730 5731 5732 5733 5735 5736 5737
5668 5670 5673 5676 5679 5681 5683 5686 5690 5693 5696 5700 5703 5706 5708 5710 5712 5714 5716 5718 5719 5721 5723 5724 5726 5728 5730 5732 5733 5735 5736 5738 5740 5741 5742 5743 5744 5744 5744 5744 5745 5745 5746 5746 5746 5746 5746 5746 5745 5745 5745 5745 5745 5745 5745 5745 5744 5744 5743 5742 5741 5741 5740 5740 5740 5739 5739 5738 5737 5736 5735 5734 5734 5732 5731 5729 5728 5727 5727 5727 5728 5729 5730 5732 5733 5734
5667 5670 5673 5677 5680 5683 5685 5688 5691 5694 5696 5699 5702 5704 5706 5709 5711 5712 5714 5716 5718 5719 5720 5722 5724 5726 5728 5729 5731 5732 5734 5736 5737 5738 5739 5740 5741 5741 5741 5741 5742 5743 5743 5743 5743 5743 5743 5743 5743 5743 5742 5742 5742 5742 5742 5742 5741 5741 5740 5739 5739 5738 5737 5737 5737 5736 5736 5735 5734 5733 5732 5732 5731 5730 5729 5728 5726 5725 5724 5725 5725 5726 5728 5729 5731 5731
5666 5670 5673 5676 5679 5682 5686 5689 5691 5694 5696 5699 5701 5703 5705 5707 5709 5710 5712 5714 5715 5717 5718 5720 5721 5723 5725 5727 5728 5730 5732 5733 5734 5736 5737 5738 5739 5739 5739 5738 5739 5739 5740 5740 5740 5740 5740 5740 5740 5740 5740 5740 5739 5739 5739 5739 5738 5738 5737 5737 5736 5735 5735 5734 5734 5733 5733 5732 5731 5730 5729 5729 5728 5728 5727 5725 5724 5723 5723 5723 5724 5724 5725 5726 5727 5728
5665 5668 5672 5675 5678 5680 5684 5687 5689 5692 5695 5697 5699 5701 5703 5705 5706 5708 5710 5712 5713 5714 5716 5718 5719 5721 5723 5724 5726 5728 5729 5730 5731 5733 5734 5735 5736 5737 5736 5736 5736 5736 5736 5736 5737 5737 5737 5737 5737 5737 5737 5737 5736 5736 5736 5736 5735 5735 5734 5734 5733 5733 5732 5732 5731 5731 5730 5729 5728 5727 5726 5726 5725 5725 5724 5723 5722 5721 5721 5722 5722 5722 5723 5723 5724 5724
5664 5667 5670 5674 5677 5679 5682 5685 5687 5690 5692 5694 5697 5699 5700 5702 5704 5706 5708 5709 5710 5712 5714 5715 5716 5718 5720 5721 5723 5725 5726 5727 5729 5730 5731 5732 5733 5734 5733 5733 5733 5733 5733 5733 5734 5734 5734 5734 5734 5734 5733 5733 5733 5733 5733 5732 5732 5731 5731 5731 5730 5730 5729 5729 5728 5728 5727 5727 5726 5724 5723 5723 5722 5722 5722 5721 5720 5719 5719 5719 5719 5720 5721 5721 5721 5721
5664 5666 5669 5672 5675 5678 5681 5683 5686 5688 5690 5692 5694 5696 5698 5700 5701 5703 5705 5707 5708 5710 5711 5713 5714 5716 5717 5718 5720 5722 5723 5724 5725 5727 5728 5729 5730 5731 5731 5730 5730 5730 5730 5730 5731 5731 5731 5730 5730 5730 5730 5730 5730 5730 5729 5729 5729 5728 5728 5727 5727 5727 5726 5726 5725 5725 5725 5724 5723 5722 5721 5720 5719 5719 5719 5718 5718 5717 5716 5716 5717 5717 5718 5718 5718 5717
5663 5666 5668 5671 5674 5676 5679 5681 5684 5686 5688 5690 5692 5694 5696 5698 5699 5701 5703 5705 5706 5708 5709 5710 5712 5713 5714 5716 5717 5719 5720 5721 5722 5723 5725 5726 5727 5727 5727 5727 5727 5727 5727 5727 5727 5727 5727 5727 5727 5727 5726 5726 5726 5726 5726 5725 5725 5725 5724 5724 5723 5723 5723 5723 5722 5722 5721 5721 5720 5719 5718 5717 5716 5716 5715 5715 5715 5714 5714 5714 5714 5714 5715 5715 5714 5714
5662 5665 5667 5670 5673 5675 5677 5680 5682 5684 5686 5688 5690 5692 5694 5696 5697 5699 5701 5702 5704 5705 5707 5708 5709 5710 5711 5713 5714 5716 5717 5718 5719 5720 5721 5722 5723 5723 5724 5724 5724 5724 5724 5724 5724 5724 5723 5723 5723 5723 5723 5723 5722 5722 5722 5721 5721 5720 5720 5720 5719 5719 5719 5719 5718 5718 5718 5717 5717 5716 5716 5715 5714 5713 5712 5712 5712 5712 5711 5711 5710 5711 5711 5711 5711 5710
5660 5663 5666 5668 5671 5673 5676 5678 5680 5682 5683 5685 5687 5690 5692 5693 5695 5697 5698 5700 5701 5702 5703 5705 5706 5707 5709 5710 5711 5713 5713 5714 5715 5716 5717 5718 5719 5720 5720 5720 5720 5721 5720 5720 5720 5720 5719 5719 5719 5719 5719 5719 5719 5718 5718 5717 5716 5716 5715 5715 5715 5715 5714 5714 5714 5714 5714 5713 5713 5713 5712 5711 5711 5710 5709 5709 5708 5708 5708 5708 5707 5707 5707 5707 5707 5707
5658 5661 5663 5666 5669 5671 5673 5675 5677 5678 5680 5682 5685 5687 5689 5691 5693 5694 5695 5696 5697 5699 5700 5702 5703 5704 5706 5707 5708 5709 5710 5711 5712 5713 5714 5715 5715 5716 5716 5716 5716 5717 5717 5717 5716 5716 5715 5715 5715 5715 5715 5715 5715 5714 5714 5713 5712 5711 5711 5711 5710 5710 5710 5710 5710 5709 5709 5709 5709 5709 5708 5708 5707 5707 5706 5706 5705 5705 5704 5704 5704 5703 5703 5702 5702 5702
5657 5659 5661 5664 5666 5668 5670 5672 5674 5675 5677 5680 5683 5685 5686 5688 5689 5691 5692 5693 5694 5696 5697 5698 5700 5701 5702 5703 5704 5705 5706 5708 5708 5709 5710 5711 5712 5712 5712 5712 5712 5713 5713 5713 5713 5712 5711 5711 5711 5711 5711 5711 5711 5710 5709 5708 5708 5707 5707 5706 5706 5706 5705 5705 5705 5705 5705 5705 5705 5704 5704 5704 5703 5703 5702 5702 5701 5701 5701 5700 5700 5700 5699 5699 5698 5697
5655 5657 5659 5661 5663 5666 5668 5670 5671 5673 5675 5678 5680 5682 5683 5684 5686 5687 5689 5690 5691 5693 5694 5695 5696 5697 5698 5699 5700 5701 5703 5704 5705 5706 5707 5708 5708 5709 5709 5709 5709 5709 5709 5709 5709 5708 5707 5707 5707 5707 5707 5707 5706 5706 5705 5705 5704 5704 5703 5703 5702 5701 5701 5700 5700 5700 5700 5700 5700 5700 5700 5700 5699 5699 5698 5698 5697 5697 5696 5696 5696 5696 5695 5695 5694 5693
5654 5656 5658 5660 5661 5664 5666 5668 5669 5671 5673 5675 5677 5678 5679 5681 5683 5685 5686 5687 5688 5690 5691 5692 5693 5694 5694 5695 5696 5697 5699 5699 5700 5701 5703 5704 5704 5705 5705 5705 5705 5705 5705 5705 5705 5704 5703 5703 5703 5703 5703 5702 5702 5702 5701 5701 5700 5700 5699 5699 5698 5697 5697 5696 5695 5695 5695 5695 5695 5695 5695 5695 5695 5694 5694 5694 5693 5692 5692 5692 5692 5692 5691 5691 5690 5689
5652 5654 5656 5658 5660 5662 5664 5665 5667 5668 5670 5672 5673 5674 5676 5679 5680 5682 5682 5683 5685 5686 5687 5688 5689 5690 5690 5691 5692 5694 5695 5695 5696 5698 5699 5699 5700 5701 5702 5702 5702 5702 5702 5701 5701 5701 5700 5700 5700 5699 5699 5698 5698 5698 5697 5697 5696 5696 5695 5694 5694 5693 5692 5691 5691 5690 5690 5690 5690 5690 5690 5690 5690 5689 5689 5689 5689 5688 5688 5688 5688 5687 5687 5686 5686 5685
5650 5652 5653 5655 5657 5659 5661 5662 5664 5665 5667 5668 5670 5672 5674 5676 5677 5678 5679 5680 5682 5683 5684 5685 5686 5686 5687 5688 5689 5690 5691 5692 5693 5694 5695 5696 5696 5697 5698 5698 5698 5698 5698 5698 5697 5697 5697 5697 5696 5696 5696 5695 5695 5694 5693 5693 5692 5692 5691 5690 5690 5689 5688 5687 5686 5686 5685 5685 5684 5684 5685 5685 5685 5684 5684 5684 5684 5684 5684 5684 5683 5683 5682 5682 5681 5681
5647 5649 5650 5652 5654 5655 5657 5659 5660 5662 5664 5666 5668 5669 5671 5672 5674 5675 5676 5678 5679 5679 5680 5681 5682 5683 5684 5685 5686 5687 5688 5689 5690 5691 5692 5692 5693 5693 5694 5694 5694 5694 5694 5694 5694 5693 5693 5693 5692 5692 5692 5691 5690 5690 5689 5688 5688 5687 5687 5686 5685 5684 5684 5683 5682 5681 5680 5680 5679 5679 5679 5679 5680 5680 5679 5678 5678 5679 5679 5679 5679 5678 5678 5677 5677 5676
5644 5645 5647 5649 5651 5652 5654 5656 5658 5660 5661 5663 5665 5666 5668 5669 5671 5672 5673 5675 5676 5676 5677 5678 5679 5680 5681 5682 5683 5684 5685 5686 5687 5688 5688 5689 5689 5690 5690 5690 5690 5690 5690 5690 5689 5689 5689 5688 5688 5687 5687 5686 5685 5685 5684 5683 5683 5682 5682 5681 5680 5680 5679 5678 5677 5676 5676 5675 5674 5674 5673 5673 5674 5674 5674 5673 5673 5674 5674 5674 5674 5673 5673 5673 5673 5672
5640 5642 5644 5646 5648 5649 5651 5653 5655 5657 5659 5660 5662 5663 5665 5666 5668 5669 5670 5672 5673 5674 5675 5676 5677 5678 5679 5680 5681 5681 5682 5683 5684 5685 5685 5686 5686 5686 5686 5686 5686 5686 5686 5686 5685 5685 5684 5684 5683 5682 5682 5681 5680 5679 5679 5678 5677 5677 5676 5675 5675 5674 5674 5673 5672 5671 5671 5670 5669 5668 5668 5668 5668 5668 5668 5668 5668 5668 5668 5669 5669 5669 5669 5669 5668 5668
5638 5640 5641 5643 5645 5647 5649 5650 5652 5654 5656 5657 5659 5660 5662 5664 5666 5667 5668 5669 5671 5672 5673 5674 5675 5676 5677 5678 5678 5679 5680 5680 5681 5681 5682 5682 5682 5683 5683 5683 5683 5682 5682 5682 5681 5681 5680 5679 5678 5678 5677 5676 5675 5674 5674 5673 5672 5671 5670 5670 5669 5669 5668 5667 5666 5665 5665 5665 5664 5663 5662 5662 5662 5662 5662 5662 5662 5662 5663 5663 5664 5664 5664 5664 5664 5664
5636 5638 5639 5641 5643 5644 5646 5648 5649 5651 5653 5655 5656 5658 5660 5662 5663 5664 5666 5667 5668 5669 5670 5671 5672 5673 5674 5675 5676 5676 5677 5677 5678 5678 5679 5679 5679 5679 5679 5679 5679 5679 5678 5678 5677 5677 5676 5675 5674 5673 5672 5671 5670 5669 5668 5667 5666 5665 5665 5664 5664 5663 5662 5661 5660 5659 5659 5659 5658 5658 5657 5656 5656 5656 5656 5656 5656 5656 5656 5657 5658 5659 5659 5660 5659 5659
5634 5636 5637 5639 5640 5642 5644 5645 5647 5649 5651 5652 5654 5656 5658 5659 5660 5662 5663 5664 5665 5666 5667 5668 5669 5670 5671 5672 5673 5674 5674 5675 5675 5676 5676 5676 5676 5676 5676 5676 5676 5676 5675 5675 5674 5673 5672 5671 5670 5669 5668 5666 5665 5664 5663 5662 5661 5660 5659 5658 5658 5657 5656 5655 5654 5653 5653 5652 5652 5652 5651 5651 5650 5650 5650 5650 5650 5650 5650 5651 5652 5653 5654 5654 5655 5655
5632 5633 5635 5637 5638 5640 5642 5644 5645 5647 5649 5650 5652 5654 5655 5657 5658 5659 5661 5662 5663 5664 5665 5666 5667 5668 5669 5670 5671 5672 5672 5673 5673 5674 5674 5674 5674 5674 5674 5674 5673 5673 5673 5672 5671 5670 5669 5668 5666 5665 5664 5662 5661 5659 5658 5657 5656 5655 5653 5652 5651 5650 5650 5649 5648 5647 5646 5646 5646 5645 5645 5645 5645 5644 5644 5643 5644 5644 5644 5644 5645 5646 5647 5648 5649 5649
5629 5631 5633 5635 5636 5638 5640 5642 5643 5645 5647 5648 5650 5652 5653 5654 5656 5657 5659 5660 5661 5662 5663 5664 5665 5666 5667 5668 5669 5670 5670 5671 5671 5671 5672 5672 5672 5672 5672 5671 5671 5670 5670 5669 5668 5666 5665 5664 5662 5660 5659 5657 5655 5654 5652 5651 5649 5648 5647 5646 5645 5644 5643 5642 5641 5640 5640 5640 5639 5639 5639 5638 5638 5638 5638 5637 5637 5638 5638 5638 5639 5640 5640 5641 5643 5643
5627 5629 5631 5633 5634 5636 5638 5639 5641 5643 5644 5646 5648 5649 5650 5652 5654 5655 5657 5658 5659 5660 5662 5663 5664 5665 5666 5667 5667 5668 5668 5669 5669 5669 5670 5670 5670 5670 5669 5669 5668 5668 5667 5666 5664 5663 5661 5660 5658 5656 5654 5652 5650 5648 5647 5645 5643 5641 5640 5639 5637 5637 5636 5635 5634 5634 5633 5633 5633 5633 5633 5632 5631 5631 5632 5631 5631 5631 5632 5632 5632 5633 5634 5635 5636 5637
5626 5627 5629 5631 5632 5634 5636 5637 5639 5641 5642 5644 5645 5647 5649 5650 5652 5653 5655 5656 5658 5659 5660 5661 5662 5663 5664 5665 5666 5666 5667 5667 5667 5668 5668 5668 5668 5667 5667 5667 5666 5665 5664 5662 5661 5660 5658 5657 5655 5653 5651 5649 5647 5645 5643 5641 5639 5637 5635 5633 5631 5630 5629 5628 5627 5626 5626 5626 5626 5626 5626 5625 5625 5625 5625 5625 5625 5625 5625 5626 5626 5626 5627 5628 5629 5630
5624 5625 5627 5629 5631 5633 5634 5636 5637 5639 5641 5642 5644 5646 5647 5649 5650 5652 5654 5655 5656 5658 5659 5660 5661 5662 5663 5664 5664 5665 5665 5666 5666 5666 5666 5666 5666 5665 5665 5664 5663 5662 5661 5660 5659 5657 5656 5654 5652 5650 5648 5646 5643 5641 5639 5637 5635 5633 5631 5629 5627 5625 5623 5622 5621 5620 5619 5618 5618 5619 5618 5618 5618 5618 5618 5618 5618 5618 5619 5619 5619 5619 5620 5621 5622 5623